• In Austria
  • List of Countries
  • For 7 days
  • Water Temperature
  • Satellite Maps
  • Weather Map
  • News
  • Weather Widgets
  • user-avatar
    Login

    Hourly Weather Chipata

    Today, 22 June, Friday

    Time Temperature Precipitation Wind Pressure Humidity
    00:00 +18°C° 0 mm 2 mps 682 mmHg 67%
    01:00 +18°C° 0 mm 2 mps 681 mmHg 69%
    02:00 +17°C° 0 mm 2 mps 681 mmHg 71%
    03:00 +17°C° 0 mm 2 mps 681 mmHg 74%
    04:00 +16°C° 0 mm 2 mps 681 mmHg 77%
    05:00 +16°C° 0 mm 2 mps 681 mmHg 80%
    06:00 +17°C° 0 mm 2 mps 682 mmHg 76%
    07:00 +18°C° 0 mm 3 mps 682 mmHg 72%
    08:00 +20°C° 0 mm 3 mps 683 mmHg 68%
    09:00 +22°C° 0 mm 3 mps 683 mmHg 59%
    10:00 +25°C° 0 mm 3 mps 683 mmHg 50%
    11:00 +28°C° 0 mm 3 mps 684 mmHg 42%
    12:00 +28°C° 0 mm 2 mps 683 mmHg 39%
    13:00 +29°C° 0 mm 2 mps 683 mmHg 37%
    14:00 +29°C° 0 mm 2 mps 682 mmHg 35%
    15:00 +28°C° 0 mm 2 mps 682 mmHg 39%
    16:00 +27°C° 0 mm 2 mps 681 mmHg 42%
    17:00 +26°C° 0 mm 2 mps 681 mmHg 46%
    18:00 +24°C° 0 mm 2 mps 681 mmHg 51%
    19:00 +22°C° 0 mm 3 mps 681 mmHg 56%
    20:00 +20°C° 0 mm 3 mps 681 mmHg 62%
    21:00 +20°C° 0 mm 3 mps 681 mmHg 64%
    22:00 +19°C° 0 mm 2 mps 681 mmHg 67%
    23:00 +18°C° 0 mm 2 mps 681 mmHg 70%

    Tomorrow, 23 June, Saturday

    Time Temperature Precipitation Wind Pressure Humidity
    00:00 +18°C° 0 mm 2 mps 681 mmHg 72%
    01:00 +17°C° 0 mm 2 mps 681 mmHg 74%
    02:00 +17°C° 0 mm 2 mps 681 mmHg 77%
    03:00 +16°C° 0 mm 2 mps 681 mmHg 79%
    04:00 +16°C° 0 mm 2 mps 681 mmHg 81%
    05:00 +15°C° 0 mm 2 mps 681 mmHg 83%
    06:00 +16°C° 0 mm 2 mps 681 mmHg 78%
    07:00 +18°C° 0 mm 2 mps 682 mmHg 73%
    08:00 +19°C° 0 mm 2 mps 682 mmHg 68%
    09:00 +21°C° 0 mm 2 mps 683 mmHg 58%
    10:00 +24°C° 0 mm 2 mps 683 mmHg 48%
    11:00 +27°C° 0 mm 2 mps 683 mmHg 38%
    12:00 +27°C° 0 mm 2 mps 682 mmHg 36%
    13:00 +28°C° 0 mm 2 mps 682 mmHg 34%
    14:00 +29°C° 0 mm 2 mps 681 mmHg 32%
    15:00 +28°C° 0 mm 2 mps 680 mmHg 36%
    16:00 +27°C° 0 mm 2 mps 680 mmHg 40%
    17:00 +25°C° 0 mm 2 mps 680 mmHg 43%
    18:00 +24°C° 0 mm 2 mps 680 mmHg 48%
    19:00 +21°C° 0 mm 2 mps 680 mmHg 53%
    20:00 +19°C° 0 mm 3 mps 680 mmHg 59%
    21:00 +19°C° 0 mm 2 mps 680 mmHg 60%
    22:00 +18°C° 0 mm 2 mps 680 mmHg 62%
    23:00 +18°C° 0 mm 2 mps 680 mmHg 64%

    Day after tomorrow, 24 June, Sunday

    Time Temperature Precipitation Wind Pressure Humidity
    00:00 +17°C° 0 mm 2 mps 680 mmHg 65%
    01:00 +17°C° 0 mm 2 mps 680 mmHg 67%
    02:00 +16°C° 0 mm 2 mps 680 mmHg 69%
    03:00 +16°C° 0 mm 2 mps 680 mmHg 70%
    04:00 +16°C° 0 mm 2 mps 680 mmHg 71%
    05:00 +15°C° 0 mm 2 mps 680 mmHg 72%
    06:00 +16°C° 0 mm 2 mps 680 mmHg 68%
    07:00 +18°C° 0 mm 2 mps 681 mmHg 64%
    08:00 +19°C° 0 mm 2 mps 682 mmHg 60%
    09:00 +21°C° 0 mm 2 mps 682 mmHg 52%
    10:00 +25°C° 0 mm 2 mps 683 mmHg 45%
    11:00 +27°C° 0 mm 2 mps 683 mmHg 37%
    12:00 +28°C° 0 mm 2 mps 682 mmHg 35%
    13:00 +29°C° 0 mm 2 mps 682 mmHg 33%
    14:00 +29°C° 0 mm 2 mps 681 mmHg 31%
    15:00 +28°C° 0 mm 2 mps 681 mmHg 35%
    16:00 +27°C° 0 mm 2 mps 680 mmHg 39%
    17:00 +25°C° 0 mm 2 mps 680 mmHg 43%
    18:00 +24°C° 0 mm 2 mps 680 mmHg 50%
    19:00 +21°C° 0 mm 2 mps 680 mmHg 58%
    20:00 +20°C° 0 mm 2 mps 681 mmHg 65%
    21:00 +19°C° 0 mm 2 mps 681 mmHg 66%
    22:00 +19°C° 0 mm 2 mps 681 mmHg 67%
    23:00 +18°C° 0 mm 2 mps 681 mmHg 67%

    25 June, Monday

    Time Temperature Precipitation Wind Pressure Humidity
    00:00 +18°C° 0 mm 2 mps 680 mmHg 69%
    01:00 +17°C° 0 mm 2 mps 680 mmHg 70%
    02:00 +17°C° 0 mm 2 mps 680 mmHg 71%
    03:00 +16°C° 0 mm 2 mps 680 mmHg 72%
    04:00 +16°C° 0 mm 2 mps 680 mmHg 73%
    05:00 +16°C° 0 mm 1 mps 680 mmHg 74%
    06:00 +17°C° 0 mm 2 mps 680 mmHg 69%
    07:00 +18°C° 0 mm 2 mps 681 mmHg 64%
    08:00 +19°C° 0 mm 2 mps 682 mmHg 59%
    09:00 +21°C° 0 mm 2 mps 682 mmHg 52%
    10:00 +24°C° 0 mm 2 mps 682 mmHg 46%
    11:00 +27°C° 0 mm 2 mps 683 mmHg 39%
    12:00 +27°C° 0 mm 2 mps 682 mmHg 38%
    13:00 +27°C° 0 mm 2 mps 681 mmHg 38%
    14:00 +27°C° 0 mm 2 mps 680 mmHg 37%
    15:00 +26°C° 0 mm 2 mps 680 mmHg 39%
    16:00 +26°C° 0 mm 2 mps 680 mmHg 42%
    17:00 +25°C° 0 mm 2 mps 680 mmHg 45%
    18:00 +24°C° 0 mm 2 mps 680 mmHg 50%
    19:00 +21°C° 0 mm 2 mps 681 mmHg 54%
    20:00 +20°C° 0 mm 3 mps 681 mmHg 59%
    21:00 +19°C° 0 mm 3 mps 681 mmHg 62%
    22:00 +18°C° 0 mm 2 mps 681 mmHg 66%
    23:00 +18°C° 0 mm 2 mps 681 mmHg 69%

    26 June, Tuesday

    Time Temperature Precipitation Wind Pressure Humidity
    00:00 +17°C° 0 mm 2 mps 681 mmHg 71%
    01:00 +17°C° 0 mm 2 mps 680 mmHg 72%
    02:00 +16°C° 0 mm 2 mps 680 mmHg 74%
    03:00 +16°C° 0 mm 2 mps 680 mmHg 76%
    04:00 +15°C° 0 mm 2 mps 680 mmHg 77%
    05:00 +15°C° 0 mm 2 mps 680 mmHg 79%
    06:00 +16°C° 0 mm 2 mps 681 mmHg 73%
    07:00 +18°C° 0 mm 2 mps 682 mmHg 68%
    08:00 +19°C° 0 mm 2 mps 682 mmHg 62%
    09:00 +21°C° 0 mm 2 mps 683 mmHg 54%
    10:00 +25°C° 0 mm 2 mps 683 mmHg 46%
    11:00 +27°C° 0 mm 2 mps 683 mmHg 38%
    12:00 +27°C° 0 mm 2 mps 682 mmHg 37%
    13:00 +27°C° 0 mm 2 mps 681 mmHg 37%
    14:00 +27°C° 0 mm 2 mps 681 mmHg 36%
    15:00 +26°C° 0 mm 2 mps 680 mmHg 40%
    16:00 +25°C° 0 mm 2 mps 680 mmHg 43%
    17:00 +25°C° 0 mm 2 mps 680 mmHg 46%
    18:00 +23°C° 0 mm 2 mps 680 mmHg 50%
    19:00 +21°C° 0 mm 2 mps 680 mmHg 55%
    20:00 +20°C° 0 mm 2 mps 681 mmHg 60%
    21:00 +19°C° 0 mm 2 mps 681 mmHg 62%
    22:00 +18°C° 0 mm 2 mps 681 mmHg 65%
    23:00 +18°C° 0 mm 2 mps 680 mmHg 67%

    27 June, Wednesday

    Time Temperature Precipitation Wind Pressure Humidity
    00:00 +17°C° 0 mm 2 mps 680 mmHg 68%
    01:00 +17°C° 0 mm 2 mps 680 mmHg 69%
    02:00 +16°C° 0 mm 2 mps 680 mmHg 70%
    03:00 +16°C° 0 mm 2 mps 680 mmHg 72%
    04:00 +15°C° 0 mm 2 mps 680 mmHg 73%
    05:00 +15°C° 0 mm 1 mps 680 mmHg 75%
    06:00 +16°C° 0 mm 2 mps 680 mmHg 70%
    07:00 +18°C° 0 mm 2 mps 681 mmHg 65%
    08:00 +19°C° 0 mm 2 mps 682 mmHg 60%
    09:00 +21°C° 0 mm 2 mps 682 mmHg 52%
    10:00 +25°C° 0 mm 2 mps 682 mmHg 44%
    11:00 +27°C° 0 mm 2 mps 683 mmHg 36%
    12:00 +27°C° 0 mm 2 mps 682 mmHg 35%
    13:00 +27°C° 0 mm 2 mps 681 mmHg 34%
    14:00 +28°C° 0 mm 2 mps 680 mmHg 33%
    15:00 +27°C° 0 mm 2 mps 680 mmHg 37%
    16:00 +26°C° 0 mm 2 mps 680 mmHg 40%
    17:00 +25°C° 0 mm 2 mps 680 mmHg 43%
    18:00 +23°C° 0 mm 2 mps 680 mmHg 49%
    19:00 +21°C° 0 mm 2 mps 680 mmHg 55%
    20:00 +20°C° 0 mm 2 mps 680 mmHg 61%
    21:00 +19°C° 0 mm 2 mps 680 mmHg 64%
    22:00 +18°C° 0 mm 2 mps 680 mmHg 67%
    23:00 +18°C° 0 mm 2 mps 680 mmHg 70%
    Show more